Flag Island, MN

2:32 AM CDT on April 26, 2017 (GMT -0500)
Flag Island

Weather History for KFGN - February, 2013

Change the Weather History Date:

Wednesday, February 27, 2013

  Actual Average Record
Temperature  
Mean Temperature 20 °F -  
Max Temperature 33 °F 18 °F 41 °F (2004)
Min Temperature 8 °F 3 °F -31 °F (2014)
Degree Days  
Heating Degree Days 44    
Moisture  
Dew Point 16 °F    
Average Humidity 76    
Maximum Humidity 92    
Minimum Humidity 60    
Precipitation  
Precipitation 0.00 in - - ()
Sea Level Pressure  
Sea Level Pressure 30.11 in    
Wind  
Wind Speed 9 mph (North)    
Max Wind Speed 22 mph    
Max Gust Speed 28 mph    
Visibility 10 miles    
Events Snow    
Averages and records for this station are not official NWS values.
T = Trace of Precipitation, MM = Missing Value Source: NWS Daily Summary

Daily Weather History Graph

Daily Weather History Graph

Search for Another Location

Airport or City:

Trip Planner

Search our weather history database for the weather conditions in past years. The results will help you decide how hot, cold, wet, or windy it might be!

Date:

Astronomy

Feb. 27, 2013 Rise Set
Actual Time 7:05 AM CST 5:59 PM CST
Civil Twilight 6:33 AM CST 6:31 PM CST
Nautical Twilight 5:56 AM CST 7:08 PM CST
Astronomical Twilight 5:19 AM CST 7:45 PM CST
Moon 8:40 PM CST (2/27) 7:26 AM CST (2/27)
Length of Visible Light 11h 58m
Length of Day
10h 54m
Waning Gibbous, 96% of the Moon is Illuminated
Feb 27
Waning Gibbous
Mar 4
Last Quarter
Mar 11
New
Mar 19
First Quarter
Mar 27
Full

Hourly Weather History & Observations

Time (CST) Temp. Windchill Dew Point Humidity Pressure Visibility Wind Dir Wind Speed Gust Speed Precip Events Conditions
12:13 AM 17.6 °F - 12.2 °F 79% 30.05 in 10.0 mi Calm Calm - N/A   Clear
12:34 AM 15.8 °F 7.2 °F 12.2 °F 86% 30.05 in 10.0 mi NNW 5.8 mph - N/A   Clear
12:53 AM 17.6 °F 12.3 °F 12.2 °F 79% 30.05 in 10.0 mi NNW 3.5 mph - N/A   Clear
1:13 AM 17.6 °F 10.7 °F 12.2 °F 79% 30.05 in 10.0 mi NW 4.6 mph - N/A   Clear
1:34 AM 17.6 °F 9.3 °F 10.4 °F 73% 30.05 in 10.0 mi NW 5.8 mph - N/A   Clear
1:53 AM 17.6 °F 10.7 °F 12.2 °F 79% 30.04 in 10.0 mi NW 4.6 mph - N/A   Clear
2:14 AM 19.4 °F 12.8 °F 12.2 °F 74% 30.04 in 10.0 mi NW 4.6 mph - N/A   Clear
2:33 AM 17.6 °F 9.3 °F 12.2 °F 79% 30.04 in 10.0 mi NNW 5.8 mph - N/A   Clear
2:54 AM 15.8 °F 7.2 °F 10.4 °F 79% 30.04 in 10.0 mi NNW 5.8 mph - N/A   Clear
3:13 AM 15.8 °F 7.2 °F 12.2 °F 86% 30.04 in 10.0 mi NNW 5.8 mph - N/A   Clear
3:34 AM 15.8 °F 8.6 °F 10.4 °F 79% 30.03 in 10.0 mi NNW 4.6 mph - N/A   Clear
3:53 AM 15.8 °F 6.1 °F 10.4 °F 79% 30.03 in 10.0 mi NW 6.9 mph - N/A   Clear
4:13 AM 15.8 °F 3.4 °F 10.4 °F 79% 30.04 in 10.0 mi NW 10.4 mph - N/A   Clear
4:33 AM 14.0 °F 1.2 °F 10.4 °F 86% 30.04 in 10.0 mi NW 10.4 mph - N/A   Clear
4:53 AM 14.0 °F 1.2 °F 8.6 °F 79% 30.04 in 10.0 mi NW 10.4 mph - N/A   Clear
5:14 AM 15.8 °F 5.1 °F 10.4 °F 79% 30.04 in 10.0 mi NW 8.1 mph - N/A   Clear
5:33 AM 15.8 °F 7.2 °F 12.2 °F 86% 30.04 in 10.0 mi NW 5.8 mph - N/A   Clear
5:53 AM 12.2 °F 0.7 °F 8.6 °F 85% 30.04 in 10.0 mi NW 8.1 mph - N/A   Clear
6:14 AM 10.4 °F -2.4 °F 8.6 °F 92% 30.05 in 10.0 mi NW 9.2 mph - N/A   Clear
6:33 AM 8.6 °F -4.7 °F 6.8 °F 92% 30.05 in 10.0 mi NW 9.2 mph - N/A   Clear
6:54 AM 8.6 °F -4.7 °F 6.8 °F 92% 30.06 in 10.0 mi NW 9.2 mph - N/A   Clear
7:13 AM 8.6 °F -6.3 °F 6.8 °F 92% 30.05 in 7.0 mi NW 11.5 mph - N/A   Clear
7:33 AM 8.6 °F -5.5 °F 6.8 °F 92% 30.06 in 7.0 mi NW 10.4 mph - N/A   Clear
7:54 AM 10.4 °F -3.3 °F 8.6 °F 92% 30.06 in 7.0 mi NW 10.4 mph - N/A   Clear
8:13 AM 10.4 °F -2.4 °F 8.6 °F 92% 30.06 in 10.0 mi NNW 9.2 mph - N/A   Clear
8:33 AM 12.2 °F 2.9 °F 10.4 °F 92% 30.07 in 10.0 mi NNW 5.8 mph - N/A   Clear
8:54 AM 14.0 °F 5.1 °F 10.4 °F 86% 30.07 in 10.0 mi North 5.8 mph - N/A   Clear
9:13 AM 15.8 °F 5.1 °F 12.2 °F 86% 30.07 in 10.0 mi North 8.1 mph - N/A   Clear
9:34 AM 17.6 °F 8.2 °F 14.0 °F 86% 30.07 in 10.0 mi North 6.9 mph - N/A   Clear
9:53 AM 19.4 °F 8.6 °F 15.8 °F 86% 30.08 in 10.0 mi North 9.2 mph - N/A   Clear
10:13 AM 21.2 °F 13.6 °F 15.8 °F 80% 30.08 in 10.0 mi North 5.8 mph - N/A   Clear
10:33 AM 21.2 °F 11.7 °F 17.6 °F 86% 30.08 in 10.0 mi North 8.1 mph - N/A   Clear
10:53 AM 23.0 °F 12.4 °F 17.6 °F 80% 30.08 in 10.0 mi North 10.4 mph - N/A   Clear
11:13 AM 24.8 °F 14.0 °F 17.6 °F 74% 30.09 in 10.0 mi North 11.5 mph - N/A   Clear
11:33 AM 24.8 °F 14.6 °F 19.4 °F 80% 30.09 in 10.0 mi North 10.4 mph - N/A   Clear
11:53 AM 28.4 °F 18.0 °F 19.4 °F 69% 30.09 in 10.0 mi NNE 12.7 mph - N/A   Clear
12:13 PM 30.2 °F 20.2 °F 19.4 °F 64% 30.09 in 10.0 mi North 12.7 mph - N/A   Clear
12:54 PM 33.8 °F 23.5 °F 21.2 °F 60% 30.09 in 10.0 mi North 16.1 mph - N/A   Clear
1:13 PM 33.8 °F 23.9 °F 21.2 °F 60% 30.09 in 10.0 mi NNE 15.0 mph - N/A   Clear
1:34 PM 33.8 °F 22.8 °F 21.2 °F 60% 30.09 in 10.0 mi North 18.4 mph - N/A   Clear
1:53 PM 33.8 °F 23.2 °F 21.2 °F 60% 30.09 in 10.0 mi North 17.3 mph - N/A   Clear
2:13 PM 33.8 °F 22.8 °F 21.2 °F 60% 30.10 in 10.0 mi North 18.4 mph - N/A   Clear
2:34 PM 33.8 °F 22.2 °F 21.2 °F 60% 30.10 in 10.0 mi NNE 20.7 mph - N/A   Clear
2:53 PM 33.8 °F 22.8 °F 21.2 °F 60% 30.10 in 7.0 mi NNE 18.4 mph - N/A   Clear
3:14 PM 33.8 °F 22.2 °F 21.2 °F 60% 30.11 in 4.0 mi NNE 20.7 mph 26.5 mph N/A   Haze
3:33 PM 33.8 °F 23.2 °F 21.2 °F 60% 30.11 in 7.0 mi NNE 17.3 mph 27.6 mph N/A Snow Light Snow
3:54 PM 33.8 °F 22.5 °F 21.2 °F 60% 30.12 in 10.0 mi NNE 19.6 mph - N/A   Clear
4:13 PM 32.0 °F 21.2 °F 21.2 °F 64% 30.13 in 10.0 mi NNE 16.1 mph 24.2 mph N/A   Clear
4:33 PM 32.0 °F 19.5 °F 21.2 °F 64% 30.14 in 10.0 mi NNE 21.9 mph 25.3 mph N/A   Clear
4:53 PM 30.2 °F 19.3 °F 21.2 °F 69% 30.14 in 10.0 mi NE 15.0 mph 23.0 mph N/A   Clear
5:13 PM 30.2 °F 19.8 °F 21.2 °F 69% 30.15 in 10.0 mi NE 13.8 mph 18.4 mph N/A   Mostly Cloudy
5:33 PM 30.2 °F 19.3 °F 21.2 °F 69% 30.16 in 10.0 mi NE 15.0 mph 23.0 mph N/A   Overcast
5:53 PM 28.4 °F 16.2 °F 21.2 °F 74% 30.17 in 10.0 mi NE 17.3 mph 25.3 mph N/A   Overcast
6:13 PM 28.4 °F 17.0 °F 19.4 °F 69% 30.17 in 10.0 mi NE 15.0 mph 20.7 mph N/A   Mostly Cloudy
6:33 PM 28.4 °F 19.7 °F 19.4 °F 69% 30.18 in 10.0 mi NNE 9.2 mph - N/A   Mostly Cloudy
6:54 PM 28.4 °F 19.7 °F 21.2 °F 74% 30.18 in 10.0 mi NNE 9.2 mph - N/A   Overcast
7:13 PM 28.4 °F 19.1 °F 21.2 °F 74% 30.19 in 10.0 mi North 10.4 mph - N/A   Overcast
7:33 PM 28.4 °F 16.6 °F 21.2 °F 74% 30.19 in 10.0 mi North 16.1 mph - N/A   Overcast
7:54 PM 26.6 °F 14.7 °F 21.2 °F 80% 30.19 in 10.0 mi NNE 15.0 mph - N/A   Overcast
8:13 PM 26.6 °F 15.2 °F 21.2 °F 80% 30.19 in 10.0 mi NNE 13.8 mph - N/A   Overcast
8:33 PM 26.6 °F 14.7 °F 21.2 °F 80% 30.20 in 10.0 mi NNE 15.0 mph - N/A   Overcast
8:54 PM 26.6 °F 13.8 °F 19.4 °F 74% 30.20 in 10.0 mi NNE 17.3 mph - N/A   Overcast
9:13 PM 26.6 °F 14.3 °F 19.4 °F 74% 30.21 in 10.0 mi NNE 16.1 mph - N/A   Overcast
9:33 PM 26.6 °F 15.7 °F 19.4 °F 74% 30.21 in 10.0 mi NE 12.7 mph - N/A   Overcast
10:13 PM 26.6 °F 14.7 °F 19.4 °F 74% 30.21 in 10.0 mi NNE 15.0 mph - N/A   Overcast
10:33 PM 26.6 °F 14.7 °F 19.4 °F 74% 30.22 in 10.0 mi NNE 15.0 mph - N/A   Overcast
10:53 PM 26.6 °F 14.3 °F 19.4 °F 74% 30.22 in 10.0 mi NNE 16.1 mph - N/A   Overcast
11:13 PM 26.6 °F 16.2 °F 19.4 °F 74% 30.22 in 10.0 mi NNE 11.5 mph - N/A   Overcast
11:34 PM 26.6 °F 15.7 °F 19.4 °F 74% 30.22 in 10.0 mi NNE 12.7 mph 16.1 mph N/A   Overcast
11:53 PM 26.6 °F 16.8 °F 19.4 °F 74% 30.22 in 10.0 mi NE 10.4 mph - N/A   Overcast